Tracking 30101 objects as of 14-Dec-2024
HD Live streaming from Space Station
objects crossing your sky now

STARLINK-6355

Track STARLINK-6355 now!
10-day predictions
STARLINK-6355 is classified as:


NORAD ID: 57356
Int'l Code: 2023-099AE
Perigee: 565.4 km
Apogee: 567.0 km
Inclination: 43.0 °
Period: 95.8 minutes
Semi major axis: 6937 km
RCS: Unknown
Launch date: July 16, 2023
Source: United States (US)
Launch site: AIR FORCE EASTERN TEST RANGE (AFETR)
Your satellite tracking list
Your tracking list is empty




NASA's NSSDC Master Catalog

Two Line Element Set (TLE):
1 57356U 23099AE  24348.77255303  .00001465  00000-0  12344-3 0  9995
2 57356  43.0018 166.3822 0001105 273.3664  86.7052 15.02542187 79076
Source of the keplerian elements: AFSPC